GFSSE_925_spd_273.txt.gz
Wind_Speed
14 15 14 12 11 12 12 12 14 13 13 13 12 11 11 11 11 10 12 12 13 12 12 10 10 9 9 8 7 6 6 6 7 8 8 8 10 11 12 12 12 14 14
21 17 15 13 12 12 13 12 14 13 12 13 11 10 10 10 10 10 11 10 10 10 10 9 8 8 8 7 7 5 5 5 6 5 6 6 6 7 7 9 11 12 12
22 18 16 14 13 13 12 12 13 13 13 12 13 11 10 10 10 10 9 9 8 8 7 7 6 6 5 5 5 5 4 4 4 3 3 3 2 6 7 5 9 10 10
22 19 17 15 14 14 14 12 13 12 12 11 10 9 8 8 8 8 7 6 6 5 5 4 5 5 5 5 5 6 5 6 5 6 5 5 3 4 7 6 7 7 10
21 19 17 16 15 15 13 13 12 10 10 10 10 8 7 6 5 5 5 4 3 3 4 4 3 3 4 6 7 8 8 7 6 6 5 8 8 8 7 8 9 10 10
21 19 17 15 15 14 13 13 12 12 10 9 9 8 8 7 7 6 5 4 3 3 3 3 4 4 5 5 5 6 6 7 6 7 6 4 7 6 6 6 7 9 9
23 19 17 16 14 14 13 11 11 10 10 9 9 8 7 6 6 6 5 4 4 5 5 5 5 6 6 6 6 6 7 8 10 10 10 7 6 8 8 9 10 10 11
23 20 18 16 15 13 11 11 10 9 8 8 7 6 6 5 4 5 5 4 4 5 6 7 7 7 8 8 8 8 8 9 11 12 11 11 11 12 10 10 10 11 12
21 21 18 17 15 12 11 10 9 9 8 7 6 6 5 4 4 3 3 4 4 5 6 7 8 8 8 9 9 10 9 10 11 11 11 13 12 13 14 11 12 12 12
21 19 18 17 14 13 11 10 9 8 7 5 5 4 3 3 3 3 3 3 4 5 6 7 8 9 9 10 10 10 11 11 13 13 14 14 13 15 12 10 11 12 11
19 18 17 16 14 12 10 10 8 7 6 5 4 3 3 5 5 5 6 7 6 7 8 8 8 10 11 11 12 11 10 12 14 16 15 15 14 15 14 12 13 14 13
18 19 17 15 14 13 11 9 8 7 6 5 4 4 3 3 4 4 3 5 5 6 8 8 9 10 11 12 12 11 14 14 15 17 17 13 13 15 16 13 14 15 15
22 19 18 17 15 13 11 8 6 6 5 4 2 3 2 0 3 4 3 7 8 8 11 12 11 12 13 14 15 15 16 18 18 17 17 13 13 14 17 13 14 15 16
23 20 18 16 15 12 9 7 6 8 6 4 3 5 3 1 4 5 9 5 7 8 9 9 12 14 15 16 18 17 17 18 17 22 20 16 14 16 16 14 12 12 13
23 21 18 15 13 12 11 7 7 4 6 5 5 4 2 2 2 5 0 4 6 8 10 9 12 14 16 16 18 19 21 20 19 20 20 18 18 16 13 11 11 9 8
25 23 19 14 10 12 13 10 5 3 5 7 7 7 3 4 4 2 3 1 0 5 8 9 8 11 13 14 17 19 22 21 21 19 17 16 15 17 14 11 9 9 7
28 24 21 18 15 13 10 11 7 5 5 5 5 5 6 5 4 2 3 1 3 5 9 8 4 5 5 8 12 12 14 20 20 19 16 15 19 16 14 11 10 9 7
28 28 25 20 18 15 11 9 6 6 7 9 8 9 11 9 3 1 2 3 3 2 1 2 2 4 5 10 16 13 9 13 18 20 18 14 18 17 14 12 11 10 9
30 29 24 21 22 17 11 8 5 3 6 7 9 10 10 10 6 3 5 3 3 2 2 1 3 4 4 12 14 9 7 8 16 16 17 16 17 16 15 14 13 12 12
31 28 23 19 19 18 12 8 5 6 7 9 12 14 12 10 7 6 5 1 2 4 6 2 4 6 5 12 7 6 2 4 7 13 15 15 16 16 15 16 13 14 13
32 28 21 21 20 17 14 8 7 7 6 9 10 11 11 12 9 6 5 2 3 2 3 4 4 5 4 8 3 6 15 6 4 9 12 14 15 17 17 18 15 13 13
34 30 24 23 21 19 16 11 7 4 3 9 11 13 12 13 12 8 5 6 6 6 5 4 2 4 3 5 4 2 3 3 7 2 4 7 13 16 18 15 13 12 14
33 33 29 28 24 22 18 13 9 5 5 5 10 14 15 12 12 10 8 8 8 7 7 6 5 4 4 1 4 2 1 2 3 3 5 4 8 13 13 12 14 14 16
36 35 32 30 26 26 21 18 15 12 9 5 12 12 16 16 15 13 11 11 10 9 9 9 7 7 5 3 3 4 4 3 2 2 2 5 5 3 9 11 13 13 15
33 36 34 32 29 29 27 24 19 18 14 9 7 7 8 17 15 13 14 15 16 12 11 8 11 10 8 7 5 6 5 4 4 3 2 3 2 4 6 6 7 8 7
27 32 35 33 32 30 30 26 22 21 18 12 11 10 7 12 13 12 14 20 21 17 13 11 13 14 13 11 8 11 13 5 4 3 3 4 5 5 7 8 8 7 6

GFSSE_925_spd_276.txt.gz
Wind_Speed
13 14 12 11 11 12 13 15 14 12 12 12 12 12 12 12 12 12 12 12 12 11 9 9 8 9 7 5 6 5 6 8 9 9 10 12 12 12 13 13 13 13 15
18 16 14 12 11 12 13 14 13 13 12 11 10 11 11 10 10 11 11 11 10 9 9 8 7 6 5 4 4 3 4 6 6 6 7 9 9 9 11 11 13 13 12
20 17 14 13 12 12 13 14 12 12 12 12 11 11 12 11 10 10 10 9 8 7 7 8 8 6 5 5 5 5 2 2 4 5 3 4 7 7 7 9 10 9 10
21 18 16 14 13 11 12 13 12 12 12 12 11 11 11 11 10 8 8 8 7 6 5 5 4 4 4 3 4 4 3 1 2 2 1 0 2 5 7 8 7 8 11
19 18 16 14 13 12 11 13 11 11 11 10 9 9 8 8 8 7 6 5 4 4 4 3 3 2 3 4 5 5 2 2 3 4 3 5 3 3 4 5 6 7 9
20 17 16 14 13 12 12 11 9 8 7 8 8 7 6 5 4 3 3 3 3 2 2 2 3 2 2 3 3 3 4 5 5 5 4 1 4 3 4 5 5 7 8
20 18 16 14 13 12 10 9 9 8 7 6 6 4 4 3 3 3 3 3 3 2 3 3 3 4 4 3 4 4 7 8 7 7 7 5 5 5 4 4 6 6 8
19 17 15 13 12 11 9 9 9 7 6 5 4 3 3 4 4 5 6 5 5 5 4 4 4 4 5 6 5 7 8 7 8 8 9 8 7 6 7 7 8 9 10
15 15 15 13 11 9 9 8 7 6 5 4 4 3 3 3 4 4 5 4 5 5 5 4 4 5 5 6 7 8 8 8 9 10 11 10 9 9 11 11 10 11 11
14 14 13 13 12 11 10 8 7 6 5 5 4 3 1 2 2 3 4 4 4 5 5 5 6 6 6 7 8 8 8 9 10 12 12 12 12 10 9 12 12 11 12
14 14 13 13 13 11 10 8 6 6 5 4 3 4 5 6 6 7 7 7 7 8 8 8 8 7 7 8 9 9 9 11 12 13 13 12 13 10 11 11 10 11 13
16 16 15 14 12 12 10 8 7 6 5 5 5 6 7 7 7 6 4 6 7 7 7 7 6 7 9 8 9 9 10 12 12 13 14 13 13 10 12 12 12 13 14
19 17 17 15 13 12 9 6 6 5 5 5 5 6 5 4 3 5 4 4 7 8 8 9 11 10 9 10 11 11 13 15 15 15 14 12 9 9 11 13 13 14 16
20 19 16 15 13 11 8 5 5 7 6 5 5 5 5 4 4 5 6 6 5 7 7 8 10 10 11 12 13 14 15 16 17 15 16 15 12 9 8 10 13 13 14
20 19 17 15 13 10 8 6 6 6 7 6 6 4 5 5 4 5 2 3 5 7 7 9 10 9 9 10 13 16 17 18 17 17 14 13 13 13 11 12 13 12 11
21 20 18 15 12 11 11 10 7 4 4 6 8 7 7 5 6 5 5 2 3 5 8 8 8 8 8 8 10 13 16 19 20 17 13 12 12 13 16 13 14 11 11
24 22 20 16 12 11 9 9 7 5 5 5 5 4 5 6 7 4 3 4 4 5 10 6 4 6 4 5 11 13 13 16 21 20 16 12 13 14 17 16 14 12 10
26 25 21 18 15 13 10 7 7 8 7 6 7 6 7 8 9 7 4 5 2 6 6 3 4 6 7 7 14 13 11 12 13 15 13 9 14 17 17 15 13 11 10
30 27 24 21 18 15 11 7 7 7 8 8 9 7 6 8 10 7 1 1 2 3 5 3 4 6 7 11 15 10 7 9 9 12 13 11 14 14 14 13 12 11 9
31 28 27 25 20 18 14 10 8 8 8 10 10 11 10 9 8 8 6 4 2 1 5 5 5 7 7 12 9 12 4 3 0 3 8 9 11 10 11 14 12 12 11
31 31 30 28 23 22 17 13 9 9 8 11 10 8 8 8 9 7 6 5 5 4 7 7 9 9 7 9 7 6 10 7 5 2 2 5 8 8 14 15 16 14 13
33 33 31 28 23 24 20 15 8 7 5 6 8 7 8 9 11 9 7 6 6 7 8 7 9 10 9 7 4 2 2 2 3 5 1 1 5 12 16 18 16 17 15
31 34 34 29 26 24 20 15 11 7 6 6 5 7 8 10 9 11 10 8 7 8 8 9 10 9 10 6 3 2 1 2 2 3 7 5 5 9 12 15 16 17 16
34 35 34 29 27 24 21 18 14 12 7 3 5 7 11 13 15 12 11 11 11 11 10 10 12 13 13 9 5 5 6 4 2 2 4 7 7 6 9 13 13 17 16
31 36 35 31 29 26 23 20 17 14 13 9 6 7 9 12 15 12 11 14 18 18 17 14 12 12 15 13 10 10 8 3 2 3 2 3 6 6 5 7 8 7 6
27 32 35 34 31 29 25 24 22 19 17 14 12 12 11 8 9 12 12 13 18 23 22 18 16 16 17 17 16 15 7 7 4 3 1 3 6 7 9 7 6 6 5

GFSSE_925_spd_279.txt.gz
Wind_Speed
10 13 13 11 12 14 13 12 12 12 11 11 11 12 13 14 15 14 13 12 11 9 8 7 7 7 7 9 10 9 10 10 10 11 11 12 11 12 13 12 13 11 13
17 14 13 12 13 12 13 11 10 10 9 9 10 9 9 10 11 11 11 10 8 7 7 6 5 4 5 5 6 6 8 8 9 9 10 11 10 9 10 11 11 13 11
18 15 13 13 12 12 12 11 11 10 9 7 8 8 9 9 10 9 9 9 7 6 5 4 3 2 2 3 4 4 3 5 6 5 6 7 8 8 7 10 9 10 12
18 15 14 14 13 11 11 12 11 10 9 8 8 9 9 9 9 8 7 7 6 6 4 4 4 4 4 4 5 4 2 1 2 3 4 5 6 8 9 9 10 11 10
16 15 14 14 12 11 10 10 10 9 8 8 7 6 6 7 7 6 5 5 5 5 5 5 3 4 5 5 4 3 3 1 1 2 3 2 2 4 5 7 7 8 10
15 14 13 13 11 11 10 10 9 7 7 7 6 5 5 4 3 4 4 3 3 4 4 5 5 3 2 3 3 3 4 2 1 2 2 2 3 3 3 3 5 7 7
14 13 11 11 11 9 10 8 7 7 6 5 6 5 4 3 3 3 3 3 4 4 4 4 4 3 2 3 3 3 5 3 3 3 3 2 2 3 3 3 5 7 7
13 12 11 11 10 9 8 7 7 6 5 5 4 4 3 3 3 4 5 5 5 5 5 4 3 4 5 4 4 5 5 3 3 6 7 7 7 5 6 5 6 7 7
11 11 10 10 9 8 7 7 6 5 4 4 3 2 2 2 3 4 4 5 5 5 4 4 3 3 4 4 6 6 6 6 7 7 7 7 8 7 6 8 8 8 9
10 10 9 9 8 7 6 6 6 5 4 3 2 2 2 3 4 5 5 5 4 5 5 5 5 4 4 5 6 6 6 8 7 7 7 8 10 8 7 9 10 9 10
10 9 8 8 7 7 6 6 6 4 4 3 2 4 5 6 8 8 9 8 6 7 5 5 6 5 5 7 7 6 7 7 7 8 9 12 9 9 9 10 9 8 10
12 11 9 8 8 7 6 7 6 5 5 5 5 5 7 8 9 8 7 6 6 5 3 5 6 5 5 6 6 7 7 8 7 8 9 10 10 9 10 11 10 9 10
12 10 10 9 9 7 7 5 5 4 5 5 5 6 7 7 6 5 6 5 6 5 4 6 7 6 6 7 7 7 8 9 9 9 10 10 9 6 7 11 11 11 11
11 10 10 10 11 9 7 5 4 4 5 4 5 6 5 5 5 6 6 9 6 4 5 5 5 7 8 9 10 11 11 12 11 11 10 12 13 8 7 11 12 11 12
11 11 12 12 12 10 8 6 5 5 5 7 6 6 5 6 5 5 6 5 5 5 6 6 6 7 7 8 9 11 12 14 14 14 11 11 11 12 12 12 12 11 12
13 14 14 15 14 11 9 7 6 4 3 5 6 6 7 6 5 6 6 5 4 4 6 7 6 6 6 6 6 7 11 13 14 16 14 13 11 12 13 13 13 11 10
17 16 17 17 14 12 10 9 7 5 5 5 3 4 5 5 6 7 7 5 4 4 7 7 3 5 3 5 8 12 16 15 14 13 15 15 11 13 14 13 14 11 10
17 19 17 14 12 12 10 8 8 7 7 5 5 6 5 6 7 8 7 3 3 5 7 5 4 5 5 6 9 13 13 12 11 10 13 14 14 9 14 14 12 11 9
20 19 19 16 13 12 11 9 8 8 7 6 6 5 4 5 6 6 4 4 5 4 6 4 4 6 6 6 8 9 8 6 8 7 8 10 9 10 12 10 10 10 8
21 23 22 20 18 15 12 10 8 8 8 7 7 8 8 7 6 7 6 5 4 3 4 4 4 7 5 7 8 7 7 5 4 3 5 5 6 4 7 9 11 9 10
20 20 23 20 21 17 12 9 8 9 6 5 8 8 7 5 6 6 6 6 7 6 6 4 7 10 8 10 7 7 2 4 5 4 3 1 6 3 10 13 14 11 9
23 24 24 25 23 22 15 12 9 6 5 6 6 5 4 4 6 8 8 7 8 7 7 6 8 6 5 7 4 4 4 1 5 8 7 6 3 8 11 17 16 12 14
24 23 26 28 25 22 20 15 12 8 7 6 4 3 4 5 7 7 9 10 10 9 8 9 10 9 9 6 8 3 4 6 6 3 4 5 6 7 11 17 13 13 15
26 23 24 27 26 24 22 16 13 11 8 5 4 4 4 7 11 13 11 11 12 13 15 12 12 11 10 11 10 6 6 8 4 4 3 7 7 10 12 10 12 13 14
22 23 23 26 26 23 24 21 16 13 10 7 7 6 9 9 12 9 10 11 13 15 17 19 15 15 11 12 12 3 7 6 11 3 6 4 12 12 11 10 8 8 11
19 20 21 23 29 25 24 24 22 17 14 11 10 9 8 9 9 8 10 11 11 13 15 15 16 18 15 15 13 8 4 7 8 12 6 8 8 6 7 7 6 5 5

GFSSE_925_spd_285.txt.gz
Wind_Speed
15 13 13 12 12 12 12 11 12 12 13 14 15 16 15 14 14 14 14 14 13 12 12 10 11 12 12 12 11 11 11 13 12 11 11 12 11 10 12 12 11 11 13
18 15 14 13 11 11 11 10 10 10 10 11 12 12 12 11 11 10 10 10 10 10 9 8 9 9 8 9 9 8 9 10 10 9 10 11 10 9 11 10 14 11 12
19 15 13 14 11 10 10 8 8 7 8 9 9 10 10 9 9 9 9 8 9 8 6 7 7 6 5 5 5 5 6 6 6 6 5 8 8 8 8 9 8 9 9
18 17 13 14 11 10 9 8 7 7 7 8 8 9 8 7 7 7 7 7 6 6 4 5 4 4 3 2 1 1 2 3 4 5 2 6 9 8 8 8 8 8 8
17 21 15 13 11 10 8 8 6 7 8 7 8 8 8 7 6 6 5 4 3 4 4 3 3 2 1 1 1 1 1 1 2 3 2 1 6 8 8 8 6 6 8
16 20 15 13 11 9 9 8 8 6 7 7 6 6 6 4 3 3 2 2 2 2 1 1 2 1 2 2 2 3 3 4 5 8 0 2 6 8 7 8 7 7 7
15 15 13 12 11 9 8 7 6 5 5 5 4 3 2 1 1 1 0 1 2 2 2 2 2 2 3 4 4 4 5 5 7 3 4 5 8 5 7 8 8 8 8
13 17 12 11 10 9 8 6 5 4 3 3 2 1 1 2 2 2 3 3 4 4 4 4 3 4 4 5 6 5 6 5 7 6 7 8 6 5 7 7 9 11 9
11 18 14 12 9 7 7 6 4 4 3 2 2 2 3 3 3 3 3 3 4 4 4 5 5 5 6 6 7 8 8 8 10 11 10 10 10 8 7 8 9 10 11
9 10 12 11 10 8 6 5 5 5 4 3 3 2 2 3 3 2 1 4 4 4 5 6 6 6 7 7 8 9 9 10 13 12 11 7 10 8 9 10 10 11 11
11 10 9 11 9 5 8 6 4 3 4 4 2 0 6 5 5 8 7 6 7 6 6 7 7 7 9 10 10 9 10 13 16 16 16 16 13 12 13 12 11 13 13
13 12 11 10 10 9 8 6 7 6 5 5 2 1 7 3 2 3 4 4 5 6 7 6 6 9 13 13 14 12 13 16 22 19 14 15 12 13 14 14 13 15 14
13 12 12 9 9 10 9 8 8 7 9 7 5 4 3 2 1 5 8 5 4 6 8 12 13 11 12 14 9 14 16 15 14 16 12 14 12 14 14 15 16 17 15
13 12 12 11 10 8 9 6 5 4 3 3 4 2 3 4 2 3 3 3 3 5 4 6 0 6 5 7 7 11 15 15 13 16 20 16 16 16 16 16 15 16 15
13 12 13 13 12 9 5 5 3 3 6 2 4 3 2 3 2 1 2 3 3 2 5 4 4 4 5 8 8 9 15 17 16 18 13 18 15 14 18 12 11 12 10
13 14 13 13 13 10 7 5 5 5 5 5 5 3 1 3 2 1 2 4 1 2 9 7 11 9 9 12 6 11 12 17 19 18 20 13 9 11 16 8 12 11 10
15 14 15 14 13 11 8 7 6 10 4 3 6 5 0 2 1 2 4 6 3 5 6 5 4 4 9 9 10 9 13 16 18 16 14 4 7 13 14 2 12 8 17
15 14 15 14 14 11 8 7 9 6 4 5 3 5 4 2 2 5 5 8 6 5 5 6 3 5 9 9 7 11 10 14 15 11 11 9 6 10 5 16 16 14 13
14 15 14 13 11 11 9 8 7 2 4 3 4 6 8 4 3 4 1 3 4 7 3 1 6 4 4 8 12 9 9 10 10 11 9 7 6 7 7 12 13 10 10
16 16 15 13 11 9 9 8 8 6 9 7 6 4 2 7 2 4 2 2 5 8 6 7 5 7 6 4 11 6 6 3 6 8 8 6 4 6 6 7 7 8 9
17 17 17 15 13 11 12 12 12 13 13 4 11 3 3 4 4 3 6 1 3 3 3 4 6 7 9 1 7 9 10 7 9 8 8 17 4 1 0 4 9 11 11
19 18 18 17 16 15 13 12 8 8 8 7 8 6 3 4 3 5 2 4 0 6 6 5 6 8 12 4 2 5 3 4 6 6 4 15 21 16 11 7 9 12 12
22 22 21 20 19 18 17 12 9 9 7 6 10 9 12 6 5 5 5 7 6 7 13 5 12 8 12 13 5 5 3 4 1 6 7 10 16 20 13 11 12 14 15
23 23 22 22 21 20 18 16 13 14 15 7 4 4 7 5 7 7 8 10 9 11 14 13 11 11 13 16 8 10 12 8 4 3 6 14 10 18 10 15 12 11 9
23 23 23 23 22 21 21 20 16 16 13 11 9 6 3 6 9 10 8 8 10 12 14 13 14 12 15 15 19 13 12 11 12 5 4 3 6 12 12 10 6 11 9
22 22 22 24 24 24 22 20 17 14 16 12 9 8 11 15 16 15 7 8 12 14 16 15 16 17 16 16 18 20 16 15 17 7 3 2 6 8 8 6 5 7 5

GFSSE_925_spd_288.txt.gz
Wind_Speed
16 16 16 13 15 14 14 15 15 17 18 19 20 20 20 19 18 18 16 15 16 14 13 12 10 10 10 11 11 11 11 11 11 10 11 13 13 14 13 13 13 14 14
19 17 17 14 14 13 13 13 14 15 15 15 17 17 18 15 14 14 13 11 11 10 9 8 8 7 8 9 9 8 8 7 7 8 10 12 13 12 12 11 13 12 13
20 17 16 14 14 12 12 12 11 12 12 13 14 15 14 13 13 12 11 10 9 8 7 5 5 5 5 5 5 5 5 4 4 5 7 8 11 11 10 10 9 11 11
20 19 17 16 13 11 11 11 11 11 12 12 13 13 12 11 10 10 9 9 8 7 6 5 4 3 3 3 3 2 2 3 4 5 4 6 7 11 11 9 10 11 10
23 22 18 15 13 11 11 10 10 11 11 11 11 11 10 9 8 8 8 7 7 6 5 4 4 3 3 3 3 3 3 2 3 1 1 6 13 10 10 9 8 9 10
25 21 19 16 13 12 12 11 10 10 10 9 8 8 7 6 5 5 4 4 5 4 4 3 3 2 2 3 4 4 5 4 5 3 6 5 12 9 9 11 10 10 11
23 20 19 16 13 12 11 10 9 8 7 6 5 5 4 3 3 3 4 3 3 3 3 3 3 3 3 5 5 5 5 6 6 7 6 8 10 7 9 11 9 10 10
23 20 18 15 12 11 9 9 8 5 4 4 3 2 3 3 4 4 4 4 3 3 4 4 4 4 5 6 7 7 7 7 8 7 8 10 12 8 9 11 11 11 11
25 19 16 13 11 10 8 7 6 5 5 4 3 4 4 5 5 5 4 3 3 4 5 5 5 6 7 7 8 10 10 9 9 12 12 13 15 9 10 12 14 14 13
21 21 18 14 11 11 9 6 6 6 5 4 4 4 5 5 4 4 5 5 4 4 5 6 8 8 10 11 10 11 12 9 10 10 12 13 18 13 10 12 13 15 15
11 15 21 16 14 14 12 7 6 6 6 7 4 3 2 9 8 5 10 10 8 7 7 8 9 12 11 11 8 13 13 15 12 15 15 19 18 15 12 14 15 16 16
14 11 15 17 14 10 12 8 8 8 8 5 5 5 6 7 7 11 7 7 6 7 6 9 10 7 10 13 11 14 18 16 14 23 12 18 22 16 14 16 16 16 17
14 13 12 15 11 10 16 9 14 13 10 9 7 4 5 7 9 5 5 8 8 9 8 11 8 7 14 23 15 12 16 41 22 23 6 9 19 7 10 12 16 16 18
14 16 13 13 11 10 8 9 12 6 12 12 8 3 2 3 3 5 5 4 9 10 11 12 13 12 11 22 29 18 16 15 10 20 7 5 10 17 9 13 19 16 17
15 13 17 13 10 8 8 4 0 2 4 4 8 6 2 8 10 4 3 5 3 3 5 4 6 9 9 13 1 2 12 21 15 19 14 6 19 15 9 17 12 14 14
15 15 18 15 12 7 6 2 3 4 10 6 9 4 3 1 2 3 4 7 10 7 6 4 5 5 10 12 4 9 5 9 16 15 5 13 15 9 11 12 13 14 17
16 16 18 18 14 11 7 6 5 5 9 8 13 7 3 2 3 3 5 1 7 11 6 9 8 9 8 9 10 11 6 8 9 10 13 5 5 10 16 16 11 25 22
18 17 18 17 18 14 10 10 8 9 10 13 13 13 6 4 5 6 1 4 8 8 5 8 8 8 10 10 13 13 7 7 12 10 14 7 10 6 12 22 13 21 20
19 17 19 15 20 16 13 9 9 8 14 11 13 14 4 9 11 0 7 5 8 10 7 7 12 11 11 8 12 15 14 9 8 10 14 12 12 8 11 14 14 14 17
21 18 15 15 14 17 15 10 12 10 11 10 5 13 7 4 6 3 8 1 6 4 10 4 5 9 14 6 8 12 17 10 7 8 13 12 18 27 8 5 7 9 9
20 21 17 14 13 10 10 12 13 16 13 14 7 9 5 2 7 5 3 9 4 4 5 4 7 7 12 7 7 8 10 7 8 11 2 8 19 20 11 8 7 6 10
25 23 22 18 17 17 15 14 14 13 2 6 4 7 4 3 4 2 4 5 4 5 6 6 16 10 16 5 3 4 2 1 6 10 8 13 18 19 14 11 7 10 13
26 27 25 22 21 19 18 14 8 10 9 9 13 13 9 9 5 3 4 8 9 10 9 5 11 8 7 15 7 3 3 3 3 8 10 13 20 18 4 11 12 13 12
23 27 27 28 22 23 19 16 15 13 14 12 4 13 16 13 8 9 9 9 8 10 13 15 11 13 11 14 18 16 13 10 3 3 2 11 13 12 9 9 12 8 6
26 27 28 29 27 23 24 21 15 16 16 13 12 18 13 9 13 14 11 8 7 8 12 15 16 15 15 16 17 18 9 14 13 7 5 4 9 11 8 6 4 5 8
25 26 29 32 30 28 24 26 23 17 22 16 10 7 9 14 18 19 11 7 5 8 12 12 14 18 16 18 17 18 17 10 10 9 2 4 4 5 3 2 2 7 6

GFSSE_925_spd_291.txt.gz
Wind_Speed
18 19 17 16 15 17 18 19 20 21 21 21 23 23 23 23 22 20 18 15 15 13 12 12 11 11 10 11 11 14 14 14 13 12 14 15 15 14 14 15 13 16 15
24 21 19 16 15 15 16 17 18 18 19 19 20 19 20 18 18 16 15 13 11 11 10 9 8 8 8 8 8 9 10 11 11 10 12 13 15 12 12 14 14 15 15
25 22 20 17 16 14 15 14 15 16 16 17 17 17 16 15 14 13 11 10 9 8 7 7 6 5 4 4 5 5 5 6 7 8 9 10 12 12 15 15 14 15 14
26 22 20 18 16 14 14 13 14 14 13 15 15 16 14 14 12 11 10 9 8 7 6 4 3 3 3 3 3 2 2 3 4 5 4 9 8 10 10 11 13 14 14
27 23 21 18 15 14 13 14 14 13 13 13 14 14 13 13 11 10 8 7 6 5 4 3 4 4 4 3 4 4 3 3 4 2 3 9 10 11 11 12 11 13 15
29 24 22 19 15 15 14 14 13 13 11 11 11 11 11 11 10 9 8 7 6 6 7 7 6 5 4 5 5 5 4 5 5 4 3 8 14 10 11 11 12 12 13
27 25 23 19 17 16 15 13 12 12 10 9 8 8 8 8 7 7 6 6 7 6 6 6 6 6 5 6 5 5 6 6 7 4 5 13 17 8 12 12 13 12 13
28 25 22 19 17 15 13 12 10 9 8 7 6 5 5 5 5 5 6 7 6 6 6 6 6 6 7 7 7 7 7 6 7 7 6 18 12 10 11 13 14 14 13
25 26 22 19 16 14 12 10 8 7 7 6 5 4 3 2 3 4 6 6 6 7 7 7 7 8 8 8 7 7 7 9 10 10 8 15 16 13 13 13 15 16 15
25 22 19 16 15 13 11 8 7 7 6 5 3 3 3 3 4 5 4 7 6 7 7 7 7 8 8 8 9 7 7 11 11 13 11 12 21 17 14 15 15 17 17
27 22 19 18 14 13 9 8 8 8 7 8 7 5 2 3 5 6 6 7 9 10 8 8 6 9 7 7 9 7 6 6 8 5 14 16 14 22 17 15 16 18 19
28 28 22 17 16 15 9 10 10 9 8 4 5 3 2 5 5 6 6 6 8 10 9 5 4 10 9 8 10 17 6 2 10 12 15 22 15 5 14 18 16 15 17
17 28 25 21 17 19 15 11 10 9 5 4 5 8 6 4 5 10 9 10 11 10 10 7 9 15 11 3 5 13 8 13 8 17 18 19 30 16 13 20 21 19 18
20 23 22 21 14 18 13 11 11 13 7 9 8 7 6 2 6 8 10 8 10 11 9 7 8 15 12 14 9 16 27 28 19 24 20 22 20 20 19 24 22 22 20
20 20 25 18 11 18 14 6 7 10 16 8 5 8 5 3 2 6 8 6 5 7 10 6 5 11 14 14 13 12 16 28 23 22 27 26 11 25 21 21 23 20 23
21 25 23 17 13 10 11 7 3 4 8 6 10 11 7 2 1 3 6 8 7 5 8 9 6 5 10 8 12 13 11 10 17 19 24 24 15 15 18 22 28 18 24
23 24 20 17 15 10 9 9 6 5 5 9 7 11 8 5 3 3 6 8 3 4 10 7 13 6 2 7 10 14 6 13 12 10 6 10 8 11 19 18 12 15 19
25 26 21 15 19 13 12 9 9 6 5 9 12 10 8 4 6 1 5 4 5 6 9 3 7 5 7 10 8 6 10 9 10 9 10 10 7 10 5 17 16 13 20
26 27 23 23 20 17 13 13 13 12 12 11 9 16 12 10 11 7 4 7 4 2 7 7 4 6 7 13 12 11 11 3 9 9 11 13 12 10 8 10 19 19 19
28 25 21 23 23 18 14 13 14 12 15 9 10 17 18 9 11 5 6 5 1 6 4 1 6 8 11 12 8 9 9 4 9 6 14 7 6 10 5 9 11 12 13
31 26 22 22 27 25 21 16 16 15 13 9 8 13 10 7 8 8 6 8 8 8 2 4 7 8 12 13 6 6 3 9 9 9 9 5 9 16 10 7 7 9 11
32 29 23 21 19 22 16 16 14 11 6 7 16 12 12 10 5 5 7 1 2 1 7 11 11 9 13 10 4 3 2 3 8 12 13 12 15 17 12 7 4 2 6
34 32 29 23 20 21 18 18 15 9 8 10 12 10 13 11 9 12 9 7 6 5 7 7 9 7 9 9 9 4 2 3 2 9 14 12 12 10 4 5 5 6 8
34 36 33 31 26 23 22 21 14 14 11 14 13 17 17 16 13 13 11 11 7 5 7 6 9 9 10 14 15 13 13 13 3 3 6 8 10 8 3 2 1 4 2
36 36 37 34 31 28 25 25 22 17 17 15 14 9 19 19 19 17 12 8 8 7 8 9 11 11 14 13 12 17 18 13 12 5 6 3 8 6 3 5 5 3 5
34 35 37 39 36 32 29 27 26 19 18 20 11 5 16 19 19 20 13 10 7 6 8 9 11 13 15 14 13 13 14 9 9 4 4 2 1 3 5 6 5 4 4